Simultaneous Nadir Overpasses (SNOs) Predictions

Prediction of SNOs between NOAA-19 and TERRA Satellite Orbit:

Table of predicted SNOs for the next 14.0 days since TLE Epoch: 12/11/2021
Index Date (NOAA-19) Time (NOAA-19) Lat,Lon (NOAA-19) SZA (NOAA-19 ) Date (TERRA) Time (TERRA) Lat,Lon (TERRA) SZA (TERRA ) Distance(km) Time Diff (sec)
1 12/12/2021 04:31:56 -80.56, -32.78 74.62 12/12/2021 04:31:43 -80.55, -32.86 74.64 1.56 13
2 12/14/2021 10:04:55 80.56, 64.02 105.51 12/14/2021 10:05:22 80.58, 64.00 105.53 2.35 27
3 12/14/2021 10:56:00 -80.55,-128.65 74.49 12/14/2021 10:54:50 -80.54,-128.73 74.54 1.83 70
4 12/16/2021 15:38:05 -80.57, 160.53 74.43 12/16/2021 15:39:03 -80.57, 160.43 74.42 1.99 58
5 12/16/2021 16:28:59 80.56, -31.86 105.60 12/16/2021 16:28:29 80.57, -31.91 105.59 1.65 30
6 12/18/2021 22:02:08 -80.57, 64.59 74.38 12/18/2021 22:02:09 -80.55, 64.51 74.40 2.36 1
7 12/21/2021 03:35:08 80.58, 161.10 105.62 12/21/2021 03:35:48 80.57, 161.26 105.64 3.20 40
8 12/21/2021 04:26:11 -80.56, -31.03 74.35 12/21/2021 04:25:15 -80.57, -31.10 74.37 1.95 56
9 12/23/2021 09:08:16 -80.58,-101.94 74.40 12/23/2021 09:09:28 -80.59,-102.01 74.38 1.49 72



Historial Predications of SNOs between NOAA-19 and TERRA
